Weather Roundup
Issued by NWS

Home | Current Version | Previous Version | Graphics & Text | Print | Product List | Glossary Off
Versions: 1 2 3 4 5 6 7 8 9 10 11 12 13 14 15 16 17 18 19 20 21 22 23 24 25 26 27 28 29 30 31 32 33 34 35 36 37 38 39 40 41 42 43 44 45 46 47 48 49 50

000
NZUS93 KARX 061559
HRRWXR

CURRENT HOURLY OBSERVATIONS ACROSS
MUCH OF THE UPPER MISSISSIPPI VALLEY
NATIONAL WEATHER SERVICE LA CROSSE WI
1000 AM CST FRI MAR 06 2015


...SOUTHEAST MINNESOTA...


CITY           SKY/WX    TMP DP  RH WIND       PRES   REMARKS
ROCHESTER      SUNNY     19  11  70 S16       30.09F WCI   4
ROCHESTER/MAYO CLOUDY    22   9  57 SW13G23   30.10S WCI  10
WINONA         SUNNY     23  10  58 SW9       30.16F WCI  13
AUSTIN         SUNNY     18  10  73 S10       30.11S WCI   6
ALBERT LEA     SUNNY     25  14  63 SW8       30.10R WCI  16
DODGE CENTER   SUNNY     19  12  73 SW18      30.07S WCI   4
PRESTON        SUNNY     18   9  69 S20       30.11F WCI   1
OWATONNA       SUNNY     25  16  68 S14       30.08S WCI  13
FARIBAULT      SUNNY     25  14  63 S8        30.08S WCI  16
$$

...ELSEWHERE IN MINNESOTA...


CITY           SKY/WX    TMP DP  RH WIND       PRES   REMARKS
MINNEAPOLIS    SUNNY     25  11  55 SW10      30.07S WCI  15
INTNL FALLS    SUNNY     19   5  54 W9        29.94R WCI   8
DULUTH         MOSUNNY   19   8  62 W17       29.93S WCI   4
RED WING       CLOUDY    25   9  50 W7        30.10S WCI  17
REDWOOD FALLS  SUNNY     32  18  56 NW15      30.07S WCI  22
MANKATO        SUNNY     27  16  63 SW10      30.08F WCI  17
FAIRMONT       SUNNY     30  18  59 W10       30.07S WCI  21
$$

...SOUTHWEST WISCONSIN...


CITY           SKY/WX    TMP DP  RH WIND       PRES   REMARKS
LA CROSSE      SUNNY     19   6  57 S10       30.17F WCI   7
PRAIRIE DU CHI SUNNY     19   5  54 S9        30.24S WCI   8
BOSCOBEL       MOSUNNY   21   6  52 SW9       30.23F WCI  11
LONE ROCK      NOT AVBL
PLATTEVILLE    SUNNY     13   4  69 S13       30.24F WCI  -2
FORT MC COY    MOSUNNY   19   5  54 SW10G17   30.18F WCI   8
VIROQUA        FAIR      17   6  63 S14G20    30.15F WCI   3
WIS DELLS      NOT AVBL
$$

...ELSEWHERE IN WISCONSIN...


CITY           SKY/WX    TMP DP  RH WIND       PRES   REMARKS
MILWAUKEE      PTSUNNY   15   2  56 SW15G23   30.30F WCI   0
MADISON        PTSUNNY   16   3  56 S14G22    30.24F WCI   2
GREEN BAY      MOSUNNY   12   3  67 S14       30.20F WCI  -3
EAU CLAIRE     CLOUDY    19   6  57 S13       30.07F WCI   6
BLACK RVR FLS  FAIR      21   4  48 SW12G18   30.14F WCI   9
MEDFORD        CLOUDY    11   1  66 S13       30.06F WCI  -4
WAUSAU         CLOUDY    14   2  58 S12       30.09F WCI   0
WIS RAPIDS     PTSUNNY   17   2  51 S16       30.15F WCI   2
MARSHFIELD     CLOUDY    17   4  56 SW14      30.09F WCI   3
RICE LAKE      PTSUNNY   15   4  63 S8        30.07R WCI   4
$$

...NORTHEAST IOWA...


CITY           SKY/WX    TMP DP  RH WIND       PRES   REMARKS
DECORAH        SUNNY     18   9  68 S10       30.16F WCI   6
MASON CITY     SUNNY     24  16  71 SW10      30.14S WCI  14
CHARLES CITY   SUNNY     18  10  73 S14       30.16S WCI   4
OELWEIN        SUNNY     18  10  73 S16       30.19F WCI   3
$$

...ELSEWHERE IN IOWA...


CITY           SKY/WX    TMP DP  RH WIND       PRES   REMARKS
DES MOINES     MOSUNNY   34  18  52 W14       30.20R WCI  25
IOWA CITY      SUNNY     23  12  62 S13       30.27F WCI  11
FORT DODGE     SUNNY     28  19  69 SW9       30.16R WCI  20
$$

...NORTHERN ILLINOIS...


CITY           SKY/WX    TMP DP  RH WIND       PRES   REMARKS
CHICAGO-OHARE  MOSUNNY   16   4  59 S15       30.37F WCI   1
CHICAGO-MIDWAY MOSUNNY   16   3  56 S16G29    30.40F WCI   1
MOLINE         MOSUNNY   23   9  55 S9G18     30.28F WCI  13
ROCKFORD       MOSUNNY   15   5  64 S18G26    30.33F WCI  -2
PEORIA         MOSUNNY   20   9  62 S22G28    30.37F WCI   3
$$

NOTE: "FAIR" INDICATES FEW OR NO CLOUDS BELOW 12,000 FEET WITH NO
SIGNIFICANT WEATHER AND/OR OBSTRUCTIONS TO VISIBILITY. WIND
SPEEDS ARE IN MILES-PER-HOUR.



USA.gov is the U.S. government's official web portal to all federal, state and local government web resources and services.